Find CO3D F2

NORAD ID: 64902 Int'l Des: 2025-156 Owner: CNES Country: F operational
LEOCIRCULARRETROGRADESSO

現在のビュー

3D地球を読み込み中...

CO3D F2について

説明を読み込み中...

次回通過

Passes for default location (London). Set your location on the main map for personalized predictions.

高度履歴

Loading altitude history...

軌道要素

1 64902U 25156D 26151.43544774 .00006998 00000-0 32604-3 0 9993
2 64902 97.4331 230.2680 0001222 126.8730 233.2617 15.20205963 46989
Epoch: May 31, 2026 • Age: 10 hours

現在のステータス

高度 515.3 km
速度 7.61 km/s
衛星直下点 63.37°N, 130.22°W
打ち上げ日 Jul 26, 2025
運用期間 0.8 years
タイプ earth observation

技術仕様

分類 Payload
質量 285.00 kg
乾燥質量 285.00 kg
総質量 285.00 kg
長さ 1.20 m
直径 0.50 m
スパン 2.50 m
形状 Box+ 2 pan
製造者 ADST
バスタイプ Astrobus-SE
フェーズステータス In Orbit
所有者/国 CNES/F

Most Searched